Location: Recife
(8.0585°S, 34.8848°W)
Time: 21:00:45
(UTC-03:00)

Explorer 11/Cluster Stage 4 - Pass Details

Date: 23 April 2026
Orbit: 463 x 1174 km, 28.8° (Epoch: 16 May)

Event Time Altitude Azimuth Distance (km) Brightness Sun altitude
Rises 23:39:55 0° 216° (SW) 2,816 - -82.8°
Reaches altitude 10° 23:44:12 10° 177° (S) 1,759 - -81.9°
Maximum altitude 23:45:08 11° 163° (SSE) 1,689 - -81.7°
Drops below altitude 10° 23:46:02 10° 150° (SSE) 1,705 - -81.6°
Sets 23:49:52 0° 109° (ESE) 2,503 - -80.8°
